Погода в Богатькове

Россия / Тверская область     56°41′59″N   34°48′37″E
темп.,
°C
ветер,
м/с
пор.,
м/с
влажн.,
%
обл.,
%
осадки,
мм/ч
давл.,
гПа
погр.,
м
2 декабря, чт
чт200:00−8з41089100 0.0 996660
03:00−8зюз3991100 0.1 997471
06:00−9юз389594 0.0 998252
09:00−9ююз2695100 0.0 999205
12:00−5ююз3887100 0.0 998380
15:00−5юв3895100 1.4 996461
18:00−4юв31095100 1.4 995575
21:00−2ю31296100 2.3 994517
3 декабря, пт
пт300:00+2юз4118999 0.8 993853
03:000юз389898 0.9 994369
06:000юз41087100 0.1 995796
09:00−1юз41189100 0.1 997552
12:000юз51183100 0.0 998866
15:00−1ююз41088100 0.0 998766
18:00−1ююз41091100 0.0 998649
21:00−1ююз41090100 0.1 998788
4 декабря, сб
сб400:00−2юз4118781 0.0 998778
03:00−4юз61386100 0.0 998828
06:00−3юз61390100 0.1 9981191
09:00−4зюз6138899 0.5 10011071
12:00−4з61185100 0.0 1004911
15:00−5з51183100 0.1 1006839
18:00−6з41084100 0.1 1009842
21:00−6з398880 0.1 1011613
5 декабря, вс
вс500:00−8з259356 0.0 1013110
03:00−11з119869 0.0 101527
06:00−8юз1198100 0.1 101644
09:00−6в1196100 0.1 101770
12:00−4вюв2492100 0.3 1018281
15:00−4вюв2595100 0.4 1018307
18:00−4вюв3796100 0.5 1019309
21:00−3вюв3896100 0.7 1019420
6 декабря, пн
пн600:00−4вюв41096100 0.8 1020545
03:00−3вюв41195100 1.7 1020594
06:00−4в51393100 0.4 1020670
09:00−5вюв51491100 0.4 1020733
12:00−4вюв51395100 1.4 1020753
15:00−4вюв51295100 2.4 1020664
18:00−4вюв41196100 0.6 1020592
21:00−3вюв3996100 1.6 1019500